Regional Weather Roundup
Issued by NWS Charleston, SC

Current Version | Previous Version | Text Only | Print | Product List | Glossary Off
Versions: 1 2 3 4 5 6 7 8 9 10 11 12 13 14 15 16 17 18 19 20 21 22 23 24 25 26 27 28 29 30 31 32 33 34 35 36 37 38 39 40 41 42 43 44 45 46 47 48 49 50

000
ASUS42 KCHS 271311
RWRCHS

REGIONAL WEATHER ROUNDUP
NATIONAL WEATHER SERVICE CHARLESTON SC
900 AM EDT MON JUL 27 2015

NOTE: "FAIR" INDICATES FEW OR NO CLOUDS BELOW 12,000 FEET WITH NO
SIGNIFICANT WEATHER AND/OR OBSTRUCTIONS TO VISIBILITY.

NOT ALL STATIONS ARE QUALITY CONTROLLED BY THE NATIONAL
WEATHER SERVICE. USE DATA WITH CAUTION...ESPECIALLY
DEWPOINT OBSERVATIONS.

SCZ027-030-031-034>040-042>050-271400-
...SOUTHEAST SOUTH CAROLINA...

CITY           SKY/WX    TMP DP  RH WIND       PRES   REMARKS
N CHARLESTON   PTSUNNY   77  75  93 N5        29.98R FOG
WATERFRONT PRK   N/A     79  78  97 N8        29.94R
MOUNT PLEASANT FAIR      81  79  94 N5        29.97R
JOHNS ISLAND   CLOUDY    81  79  94 CALM      29.97R
PINOPOLIS      NOT AVBL
MONCKS CORNER    N/A     77  75  94 NE5       29.98R
SUMMERVILLE    FOG       75  75 100 N5        30.00R VSB 1/2
BEAUFORT MCAS  CLOUDY    77  75  93 N6        29.98R FOG
BEAUFORT ARPT  CLOUDY    81  79  94 N6        29.97R
HILTON HEAD IS MOSUNNY   82  77  83 N7        29.97R HX  91
WALTERBORO     FOG       77  75  94 N3        30.00R VSB 1/4
ALLENDALE      FOG       73  73 100 CALM      29.99R VSB 3/4

...SOUTHERN MIDLANDS AND PEE DEE...

CITY           SKY/WX    TMP DP  RH WIND       PRES   REMARKS
GEORGETOWN     NOT AVBL
KINGSTREE      NOT AVBL
ORANGEBURG     CLOUDY    75  72  90 NE5       30.01R
BARNWELL       CLOUDY    75  72  88 CALM      30.02R
AIKEN          PTSUNNY   77  64  65 CALM      30.05S
MANNING        FOG       72  70  94 N5        30.00S VSB 1/2
COLUMBIA       PTSUNNY   78  71  79 E3        30.01S
SUMTER         CLOUDY    75  73  92 NE5       30.00R
FLORENCE       MOSUNNY   79  73  82 CALM      30.01R
MYRTLE BEACH   MOSUNNY   82  73  74 NE7       30.00
N MYRTLE BEACH SUNNY     83  76  79 NE6       29.99R HX  91

$$

GAZ063-065-086>088-099>101-113>116-118-119-134>141-150-271400-
...SOUTHEAST GEORGIA...

CITY           SKY/WX    TMP DP  RH WIND       PRES   REMARKS
SAVANNAH ARPT  PTSUNNY   78  75  90 N5        29.97R
HUNTER AAF     PTSUNNY   81  81 100 N6        29.94R HX  91
FORT STEWART   CLOUDY    79  75  86 NE6       29.95R
STATESBORO     PTSUNNY   77  77 100 N3        29.99R
SYLVANIA       MOSUNNY   76  75  96 CALM      30.00S
CLAXTON        CLOUDY    73  73 100 CALM      29.99R FOG

...CSRA...CENTRAL AND FAR SOUTHEAST GEORGIA...

CITY           SKY/WX    TMP DP  RH WIND       PRES   REMARKS
THOMSON        SUNNY     80  72  75 CALM      30.06R
AUGUSTA-BUSH   MOSUNNY   79  69  71 CALM      30.00R
AUGUSTA-DANIEL MOSUNNY   80  68  66 CALM      30.03R
SWAINSBORO     FAIR      81  73  78 CALM      30.02R
VIDALIA        SUNNY     79  72  78 NE5       30.00R
EASTMAN        FAIR      77  75  93 CALM      30.03R
HAZLEHURST     CLOUDY    79  76  90 N3        29.98R
ALMA           CLOUDY    78  74  87 VRB3      29.97R
WAYCROSS       MOSUNNY   82  78  88 NE5       29.96S HX  92
JESUP          FAIR      81  77  89 NE3       29.97R
BAXLEY         CLOUDY    79  73  83 NE6       29.97S
BRUNSWICK        N/A     79  77  94 N3        29.95R
SAINT SIMONS   PTSUNNY   84  77  79 E8        29.94R HX  94

$$

SCZ027-028-034-036>038-045-046-048>050-GAZ119-141-271400-
...LAKE AND SUPPLEMENTAL COASTAL OBSERVATIONS...

STATION/POSITION TIME  TEMP    WIND        PRES    WAVE   SWELL
                       AIR SEA DIR/SP/G            HT/PER HT/PER/DIR
                 (UTC) (F)     (DEG/KT/KT) (MB)    (FT/S) (FT/S/D)
UPR LAKE MARION  NOT AVBL
WINYAH BAY       NOT AVBL
LAKE MURRAY      1200   78      CALM  /  1 1015.6R
ACE BASIN NERRS  NOT AVBL
FORT PULASKI     1200   82 85   50/  8/ 11 1014.4R
SAPELO ISLAND    1200   82      30/  4     1013.0S

$$

ANZ835-935-AMZ111-154-330-350-352-354-370-450-454-472-271400-
...C-MAN AND BUOY OBSERVATIONS...

STATION/POSITION TIME  TEMP    WIND        PRES    WAVE   SWELL
                       AIR SEA DIR/SP/G            HT/PER HT/PER/DIR
                 (UTC) (F)     (DEG/KT/KT) (MB)    (FT/S) (FT/S/D)
BUOY 41004       1250   81 83   10/  4/  6 1013.9R   2/11   2/11
BUOY 41008       1250   81 81   50/  6/  8 1013.8R   2/11   2/ 70/11
FOLLY BEACH CMAN 1300   81      20/  6/  7 1014.9R
CAPERS NEARSHORE 1208   82      60/ 10/ 12 1014.4R
FRIPP NEARSHORE  1200   83      60/  8/ 10 1013.7R


STATION/POSITION TIME  TEMP    WIND        PRES    WAVE   SWELL
                       AIR SEA DIR/SP/G            HT/PER HT/PER/DIR
                 (UTC) (F)     (DEG/KT/KT) (MB)    (FT/S) (FT/S/D)
5E ST. MARYS GA  1221      80                N/A     2/ 6
FRYING PAN BUOY  1250   84 83  130/ 10/ 12 1015.1R   3/ 6   3/ 80/ 6
BUOY 41025       NOT AVBL
CAPE LOOKOUT NC  1200   80     100/  8/  9 1015.5R
BUOY 41002       1250   80 82  290/ 12/ 14 1015.2R   4/ 7   3/190/ 7
BUOY 41010       1220   78 84  250/ 23/ 37 1014.5R
ST AUGUSTINE FL  1300   80 79  210/  4/  5 1014.4R


$$


USA.gov is the U.S. government's official web portal to all federal, state and local government web resources and services.